TimeCST,TemperatureF,Dew PointF,Humidity,Sea Level PressureIn,VisibilityMPH,Wind Direction,Wind SpeedMPH,Gust SpeedMPH,PrecipitationIn,Events,Conditions,WindDirDegrees,DateUTC
12:54 AM,21.9,17.1,82,30.12,8.0,WNW,16.1,-,N/A,,Overcast,290,2013-01-03 06:54:00
1:32 AM,21.2,15.8,80,30.06,9.0,WNW,12.7,-,N/A,,Overcast,290,2013-01-03 07:32:00
1:54 AM,19.9,14.0,78,30.14,9.0,WNW,16.1,-,N/A,,Overcast,290,2013-01-03 07:54:00
2:54 AM,17.1,10.9,77,30.16,9.0,West,16.1,-,N/A,,Overcast,280,2013-01-03 08:54:00
3:45 AM,14.0,8.6,79,30.09,4.0,WNW,15.0,-,0.00,Snow,Light Snow,290,2013-01-03 09:45:00
3:54 AM,14.0,9.0,80,30.17,4.0,WNW,15.0,-,0.00,Snow,Light Snow,290,2013-01-03 09:54:00
4:03 AM,14.0,8.6,79,30.09,4.0,North,-9999.0,-,0.00,Snow,Light Snow,0,2013-01-03 10:03:00
4:27 AM,12.2,8.6,85,30.10,4.0,WNW,15.0,-,0.00,Snow,Light Snow,290,2013-01-03 10:27:00
4:52 AM,12.2,8.6,85,30.11,6.0,WNW,16.1,-,0.00,,Haze,290,2013-01-03 10:52:00
4:54 AM,12.9,8.1,81,30.19,6.0,WNW,15.0,-,0.00,,Haze,290,2013-01-03 10:54:00
5:36 AM,12.2,8.6,85,30.11,4.0,NW,17.3,-,0.00,Snow,Light Snow,310,2013-01-03 11:36:00
5:54 AM,12.9,8.1,81,30.20,4.0,WNW,12.7,-,0.00,Snow,Light Snow,300,2013-01-03 11:54:00
6:43 AM,12.2,6.8,79,30.14,6.0,WNW,15.0,-,0.00,,Haze,300,2013-01-03 12:43:00
6:54 AM,12.9,7.0,77,30.23,6.0,WNW,18.4,-,0.00,,Haze,300,2013-01-03 12:54:00
7:54 AM,12.0,7.0,80,30.25,4.0,WNW,11.5,-,0.00,,Haze,290,2013-01-03 13:54:00
8:29 AM,12.2,6.8,79,30.17,2.5,WNW,13.8,-,0.00,Snow,Light Snow,290,2013-01-03 14:29:00
8:39 AM,12.2,6.8,79,30.18,2.5,WNW,12.7,-,0.00,Snow,Light Snow,290,2013-01-03 14:39:00
8:54 AM,12.0,6.1,77,30.26,4.0,WNW,12.7,-,0.00,Snow,Light Snow,290,2013-01-03 14:54:00
9:41 AM,12.2,6.8,79,30.19,5.0,WNW,15.0,-,0.00,,Haze,290,2013-01-03 15:41:00
9:54 AM,12.0,6.1,77,30.28,6.0,WNW,16.1,-,0.00,,Haze,290,2013-01-03 15:54:00
10:54 AM,12.0,5.0,73,30.30,8.0,WNW,12.7,-,N/A,,Overcast,290,2013-01-03 16:54:00
11:11 AM,12.2,5.0,73,30.22,6.0,West,10.4,-,N/A,,Haze,280,2013-01-03 17:11:00
11:25 AM,12.2,5.0,73,30.21,7.0,WNW,12.7,-,N/A,,Scattered Clouds,290,2013-01-03 17:25:00
11:42 AM,12.2,5.0,73,30.21,7.0,West,12.7,-,N/A,,Mostly Cloudy,270,2013-01-03 17:42:00
11:54 AM,12.0,3.9,70,30.28,9.0,West,12.7,-,N/A,,Scattered Clouds,280,2013-01-03 17:54:00
12:38 PM,10.4,3.2,73,30.20,8.0,West,11.5,-,N/A,,Mostly Cloudy,280,2013-01-03 18:38:00
12:54 PM,10.9,3.0,70,30.28,9.0,West,12.7,-,N/A,,Scattered Clouds,270,2013-01-03 18:54:00
1:54 PM,9.0,1.9,73,30.28,10.0,West,12.7,-,N/A,,Clear,280,2013-01-03 19:54:00
2:15 PM,8.6,1.4,73,30.20,7.0,West,13.8,-,N/A,,Scattered Clouds,280,2013-01-03 20:15:00
2:54 PM,9.0,1.9,73,30.30,8.0,West,13.8,-,N/A,,Clear,270,2013-01-03 20:54:00
3:01 PM,8.6,1.4,73,30.21,8.0,West,11.5,-,N/A,,Partly Cloudy,280,2013-01-03 21:01:00
3:49 PM,8.6,1.4,73,30.22,7.0,West,11.5,-,N/A,,Mostly Cloudy,280,2013-01-03 21:49:00
3:54 PM,9.0,1.9,73,30.31,8.0,WNW,12.7,-,N/A,,Mostly Cloudy,290,2013-01-03 21:54:00
4:02 PM,8.6,1.4,73,30.22,10.0,West,12.7,-,N/A,,Partly Cloudy,280,2013-01-03 22:02:00
4:54 PM,8.1,1.0,73,30.31,10.0,West,9.2,-,N/A,,Clear,270,2013-01-03 22:54:00
5:54 PM,8.1,1.9,76,30.32,10.0,West,9.2,-,N/A,,Clear,260,2013-01-03 23:54:00
6:54 PM,8.1,1.9,76,30.31,10.0,WSW,12.7,-,N/A,,Clear,250,2013-01-04 00:54:00
7:54 PM,9.0,3.0,77,30.30,10.0,WSW,12.7,-,N/A,,Clear,250,2013-01-04 01:54:00
8:54 PM,9.0,3.9,80,30.27,10.0,SW,16.1,-,N/A,,Clear,230,2013-01-04 02:54:00
9:54 PM,10.9,5.0,77,30.24,10.0,SW,18.4,-,N/A,,Clear,230,2013-01-04 03:54:00
10:54 PM,12.0,7.0,80,30.23,10.0,WSW,18.4,-,N/A,,Clear,240,2013-01-04 04:54:00
11:54 PM,12.0,7.0,80,30.22,9.0,SW,16.1,-,N/A,,Clear,230,2013-01-04 05:54:00